Погода в Лесосибирске

Россия / Красноярский край     58°13′18″N   92°30′13″E
темп.,
°C
ветер,
м/с
пор.,
м/с
влажн.,
%
обл.,
%
осадки,
мм/ч
давл.,
гПа
погр.,
м
8 августа, пн
пн801:00+16ссв1178100 0.0 101011
04:00+15ссз0180100 0.0 101011
07:00+15ссз1181100 0.0 101031
10:00+21ссв116158 0.1 1011466
13:00+24с1248100 0.1 10111423
16:00+24с124698 0.0 10111764
19:00+17в248173 0.3 1011103
22:00+15св118483 0.0 101211
9 августа, вт
вт901:00+13с11915 0.0 101311
04:00+12ссв119218 0.0 101210
07:00+15с118398 0.0 101343
10:00+18ссз117296 0.0 1012182
13:00+23з124841 0.0 10121094
16:00+24сз2346100 0.0 10101559
19:00+21ссз226485 0.0 101039
22:00+17в1172100 0.0 101116
10 августа, ср
ср1001:00+13юв118799 0.0 101011
04:00+13зсз1186100 0.0 101012
07:00+15зсз13899 0.3 1009132
10:00+20сз236872 0.0 1009611
13:00+22ссз3457100 0.0 10091258
16:00+19с257638 0.1 1009453
19:00+21ссз24726 0.1 1008372
22:00+15ссв11945 0.0 100911
11 августа, чт
чт1101:00+13всв009499 0.0 100910
04:00+12юв119483 0.0 100910
07:00+14ююв118692 0.0 101069
10:00+20ю1266100 0.0 1010501
13:00+21сз226599 0.0 1009962
16:00+21сз347593 0.6 1009765
19:00+18сз368384 1.3 1009643
22:00+15ссз3893100 0.0 1010261
12 августа, пт
пт1201:00+12ссз259830 0.0 1010112
04:00+11ссз2498100 0.0 101082
07:00+11сз2591100 0.0 1011163
10:00+15ссз3560100 0.0 1011460
13:00+18сз344832 0.0 10111150
16:00+20сз44414 0.0 10111799
19:00+17сз38520 0.0 1012596
22:00+11сз28751 0.0 1013145